Wind_Speed
47 57 56 62 60 49 49 60 63 53 52 57 61 48 52 52 60 48 39 38 32 33 28 32 32 36 26 19 31 40 38 20 24 18 17 23 23 31 39 22 13 14 12 5
44 56 60 50 57 55 54 52 65 54 64 66 58 62 45 44 42 41 49 45 46 34 31 24 31 37 37 31 23 40 38 24 16 12 24 23 26 29 29 42 25 24 9 8
44 52 59 54 54 53 55 60 48 67 50 62 65 59 53 38 41 44 44 44 40 42 34 26 18 35 34 32 28 31 35 34 30 24 17 24 30 26 30 33 23 20 24 14
46 53 54 58 49 55 62 65 39 52 65 75 71 61 51 48 47 39 44 54 54 46 42 39 35 30 37 37 34 35 37 32 32 27 25 20 24 33 29 25 24 20 21 27
44 42 51 54 54 53 62 58 61 52 40 63 64 60 50 49 50 46 48 51 55 55 49 52 48 40 41 44 41 40 45 26 31 26 25 24 24 27 25 22 19 24 22 34
45 44 46 54 60 63 65 81 72 44 53 53 58 62 58 57 52 52 45 43 44 41 42 40 40 40 46 44 40 40 40 32 28 17 23 24 25 36 29 27 24 24 28 30
43 41 45 49 47 50 59 63 62 55 55 61 56 62 62 50 46 43 39 45 45 40 38 38 34 34 33 32 39 36 33 33 24 14 16 5 25 26 23 26 27 26 27 29
40 36 40 44 47 53 57 37 48 51 47 38 52 48 42 40 40 36 35 29 30 33 33 28 23 21 18 18 20 19 22 25 10 10 13 12 14 24 26 28 28 26 23 26
27 26 27 30 37 38 41 27 30 44 39 39 37 41 43 42 34 30 29 27 22 19 30 24 11 11 14 15 15 25 24 23 21 12 6 9 21 21 22 22 28 30 23 26
23 24 19 17 19 20 20 20 23 26 34 29 23 24 20 22 26 33 31 29 34 32 34 25 13 12 17 15 21 25 28 25 27 22 13 15 26 13 14 18 21 18 23 22
20 19 20 23 23 22 22 22 19 19 24 29 28 26 28 27 28 33 34 32 28 29 20 19 11 9 17 15 16 24 31 24 21 18 12 15 28 21 29 30 29 24 26 27
16 16 18 17 16 16 18 22 23 20 20 29 24 23 20 18 23 22 21 24 24 21 20 16 15 12 18 23 16 21 23 29 29 23 27 33 21 23 15 17 16 19 23 26
18 19 19 18 17 18 14 19 21 21 19 26 21 21 20 20 20 20 19 26 22 24 23 19 13 11 15 13 21 17 22 24 28 27 31 27 23 26 22 19 20 24 28 32
18 18 19 20 23 25 22 21 21 21 27 27 23 20 19 18 19 17 14 15 15 16 18 17 13 16 14 19 18 26 25 26 32 31 33 30 30 32 33 33 33 33 33 34
15 15 16 19 24 24 21 20 21 22 14 28 25 18 17 16 14 12 11 11 11 11 11 12 13 16 14 16 20 30 28 32 30 33 34 36 39 35 30 28 28 28 30 32
16 16 16 17 17 17 20 20 19 19 9 22 20 18 18 16 15 13 12 13 14 13 12 13 14 16 15 16 28 34 30 29 29 35 34 38 43 43 44 44 45 41 39 37
17 18 18 17 16 14 16 16 18 18 15 21 17 15 15 14 16 16 17 18 16 15 17 18 19 20 21 29 38 21 20 23 26 29 31 35 32 33 30 33 37 37 38 38
14 15 14 13 12 10 10 14 15 16 17 19 10 11 16 15 13 12 14 14 15 17 18 20 22 20 22 25 16 17 17 21 25 24 25 33 30 31 32 31 35 40 40 35
13 12 12 10 12 11 10 10 12 12 12 10 10 14 12 14 11 10 9 10 9 10 12 15 13 19 16 15 15 17 15 20 22 20 20 21 23 21 22 25 27 30 32 37
13 12 12 11 9 7 7 7 7 8 11 9 15 14 12 15 13 11 8 8 7 3 5 7 12 18 9 9 11 12 13 13 17 17 22 21 21 18 18 21 23 27 26 28
12 10 7 7 5 4 3 4 5 6 5 8 13 13 14 12 14 13 7 4 2 2 3 4 4 6 7 8 9 10 12 11 12 12 9 14 12 13 15 16 17 15 11 5
10 7 7 6 4 3 4 5 5 6 5 8 11 14 13 12 13 7 5 4 3 2 3 3 4 3 7 7 9 10 10 7 6 3 7 8 6 3 2 4 8 10 11 10
9 7 4 3 3 3 4 4 5 6 7 10 10 10 15 13 10 5 5 4 3 1 4 4 5 8 7 5 7 7 7 7 5 4 1 2 4 6 8 6 6 4 1 1
13 6 4 2 3 3 5 8 8 9 7 9 9 9 5 6 9 5 4 5 4 4 4 4 8 9 3 1 3 5 4 3 2 4 6 7 7 9 8 7 5 3 3 4
10 5 3 4 4 4 6 7 5 7 7 8 5 3 4 4 2 5 5 4 4 5 6 6 7 1 3 4 4 5 6 6 5 4 4 6 7 11 11 8 7 6 5 6
8 3 5 8 8 5 5 5 5 5 11 7 6 3 4 6 4 4 5 4 4 4 5 2 3 5 5 5 6 7 6 6 7 7 6 6 5 5 10 10 10 8 7 7
5 6 6 6 7 6 2 5 5 7 6 8 5 4 4 4 4 4 5 4 7 7 5 5 2 2 2 3 4 4 5 5 6 6 7 7 7 7 9 9 8 7 8 8
Wind_Direction
212 211 203 207 206 204 206 204 212 215 210 213 212 212 213 219 223 220 223 207 212 216 211 214 212 218 231 233 222 211 215 227 239 228 224 230 230 235 216 210 212 221 241 270
213 204 209 202 199 199 202 203 207 211 211 214 212 220 222 221 219 217 216 220 216 212 212 209 224 234 240 228 217 209 210 212 212 231 234 227 217 222 223 224 232 222 199 216
208 201 210 202 204 201 199 205 198 209 211 215 209 214 218 220 225 227 227 231 217 210 207 196 208 227 228 220 219 212 216 211 212 219 227 217 216 221 224 224 225 225 225 216
200 197 199 193 200 199 197 211 205 202 201 212 216 216 220 222 221 220 221 218 224 220 219 210 207 209 222 213 213 215 215 213 218 224 232 232 229 225 224 221 227 218 235 244
198 202 196 199 203 199 200 214 213 214 206 203 206 213 213 216 216 219 222 230 231 225 226 219 207 213 215 218 211 210 214 212 221 225 231 233 223 225 220 220 221 236 243 257
193 201 188 194 200 203 206 207 213 215 218 222 213 216 219 221 225 226 223 217 212 208 215 216 222 223 227 224 214 207 209 210 213 193 202 212 234 229 227 233 237 248 249 264
179 180 187 195 208 204 208 202 206 200 209 213 219 215 218 216 212 209 207 210 207 204 206 207 197 199 199 200 208 209 207 209 200 197 195 198 237 245 237 250 258 260 263 264
170 177 192 203 209 211 215 216 213 212 214 199 199 197 201 200 194 192 186 184 204 202 197 189 196 210 213 213 215 217 220 217 176 165 197 252 244 244 243 245 241 242 253 264
105 115 120 131 154 159 183 161 191 204 197 199 205 196 205 206 188 180 187 193 198 198 177 165 174 174 182 195 206 219 228 232 233 193 181 204 262 250 241 225 245 250 251 252
136 134 140 122 115 121 129 126 130 151 158 157 157 155 174 180 188 188 182 194 191 199 184 184 180 187 181 170 176 185 191 201 207 206 216 250 253 247 195 201 251 258 274 269
134 147 152 158 162 161 164 162 155 161 160 167 175 176 173 174 188 185 175 171 176 181 190 194 184 186 194 195 195 202 202 196 207 208 208 245 250 227 228 254 263 267 268 260
116 126 128 132 139 154 155 164 167 166 174 161 165 174 178 193 205 203 204 203 204 201 198 202 205 180 197 209 203 211 208 215 217 219 232 248 260 261 251 244 253 254 251 249
111 118 120 123 133 141 147 155 152 163 169 154 165 170 175 177 176 184 205 193 196 197 201 188 188 196 207 202 226 228 231 235 238 241 244 246 250 252 258 246 240 239 248 256
116 120 122 126 138 143 144 144 141 169 158 146 147 154 163 158 159 163 160 190 177 190 192 193 192 201 206 209 222 222 228 226 232 240 247 250 248 253 255 256 254 257 256 257
126 128 126 129 137 143 145 155 152 164 163 154 149 153 156 163 165 161 164 176 176 182 195 209 215 228 239 246 248 243 241 245 252 258 259 264 264 266 266 254 246 244 243 247
153 153 151 151 152 153 152 154 155 167 143 156 151 171 182 191 196 196 210 221 222 218 221 229 236 239 249 258 260 259 260 265 262 261 263 261 259 261 261 260 254 252 255 253
144 149 147 147 151 163 165 166 163 166 155 173 164 168 186 197 205 205 216 227 233 237 245 250 256 263 266 268 266 277 293 296 287 277 270 253 252 262 267 263 262 262 261 260
132 129 127 129 133 139 147 162 163 167 171 169 158 169 183 193 201 209 214 220 227 234 243 254 256 261 264 266 289 308 289 278 267 267 265 261 259 253 254 258 260 257 254 255
143 140 140 132 140 135 139 151 157 163 170 171 170 163 169 185 184 189 194 206 216 231 239 253 258 253 250 297 293 278 275 275 281 258 251 252 251 253 261 260 262 264 260 253
152 143 150 143 141 125 126 125 139 145 151 140 154 158 156 163 169 179 171 174 187 198 223 241 250 262 285 265 291 301 306 293 287 275 243 244 253 258 270 277 274 275 270 259
172 167 151 132 116 98 98 101 106 106 106 133 151 157 153 157 184 175 175 141 150 202 219 219 263 305 302 291 300 303 321 308 282 271 247 239 255 272 290 270 266 266 271 243
164 161 143 116 98 86 84 93 83 97 96 125 164 182 180 163 154 162 176 172 208 209 222 222 254 274 301 280 290 308 326 330 355 198 190 186 219 208 58 82 112 113 110 154
165 157 147 108 86 79 79 79 84 97 104 135 123 147 177 178 185 190 182 187 209 221 223 236 258 303 297 271 293 316 328 332 302 318 231 209 289 235 199 174 160 199 88 171
200 170 159 114 112 120 113 109 118 111 109 132 133 140 131 156 165 161 174 188 193 221 238 243 249 268 297 313 0 341 325 314 288 253 248 253 244 234 231 228 242 288 263 228
162 150 163 143 129 148 164 164 121 154 137 133 130 158 179 180 216 178 183 193 213 215 230 259 158 325 331 338 335 329 331 326 313 294 267 248 236 228 229 227 227 240 248 225
165 152 149 165 150 140 134 170 200 207 170 171 189 193 198 200 218 204 195 199 202 210 51 20 290 281 283 298 305 307 313 312 319 313 305 284 258 213 219 233 238 242 237 224
170 163 127 148 168 137 97 191 207 215 207 203 200 217 210 180 210 207 200 217 227 234 261 313 298 283 294 297 294 302 314 324 322 317 315 301 275 249 236 235 236 237 238 242
Height
2857 2868 2882 2895 2911 2923 2933 2947 2948 2955 2967 2976 2972 2974 2977 2987 2999 3009 3009 3017 3023 3024 3025 3031 3039 3038 3042 3044 3046 3050 3054 3062 3065 3067 3067 3067 3069 3071 3074 3076 3077 3078 3078 3078
2848 2859 2872 2886 2899 2911 2924 2934 2941 2943 2956 2955 2955 2972 2977 2981 2990 2995 2998 3006 3016 3020 3020 3028 3030 3036 3038 3041 3041 3042 3049 3054 3060 3062 3065 3063 3061 3063 3065 3068 3069 3070 3075 3074
2841 2852 2864 2878 2890 2903 2916 2921 2920 2934 2940 2947 2953 2961 2967 2974 2979 2989 2991 3001 3010 3011 3015 3015 3020 3029 3032 3037 3038 3041 3043 3044 3046 3047 3050 3053 3056 3056 3059 3060 3062 3063 3065 3068
2835 2846 2858 2871 2881 2896 2904 2906 2914 2913 2921 2932 2942 2953 2960 2968 2974 2979 2982 2991 2998 3002 3007 3009 3014 3020 3027 3029 3032 3036 3038 3038 3042 3043 3046 3049 3049 3051 3051 3053 3055 3057 3060 3062
2832 2842 2856 2866 2878 2888 2895 2894 2905 2908 2918 2927 2936 2944 2952 2959 2966 2970 2973 2978 2985 2993 2996 2999 3002 3010 3017 3020 3025 3026 3029 3030 3033 3038 3041 3043 3045 3044 3045 3048 3049 3050 3054 3052
2829 2835 2846 2861 2867 2875 2876 2882 2894 2905 2911 2918 2930 2934 2941 2948 2954 2961 2967 2973 2977 2983 2989 2994 3000 3003 3009 3012 3016 3018 3020 3022 3027 3031 3034 3037 3038 3033 3037 3041 3043 3044 3045 3048
2825 2836 2847 2856 2861 2869 2871 2880 2891 2899 2905 2911 2918 2926 2936 2943 2949 2953 2957 2964 2968 2976 2980 2988 2993 2996 2998 3001 3005 3008 3012 3016 3020 3024 3028 3034 3025 3029 3032 3034 3036 3037 3040 3041
2830 2838 2846 2852 2860 2868 2874 2876 2885 2890 2902 2906 2916 2919 2931 2936 2939 2947 2952 2957 2965 2971 2975 2983 2989 2990 2992 2994 2998 3002 3006 3010 3012 3016 3023 3023 3021 3021 3024 3025 3029 3030 3033 3035
2838 2842 2848 2852 2852 2860 2871 2874 2879 2886 2891 2903 2911 2918 2924 2929 2934 2943 2950 2957 2962 2966 2971 2975 2978 2982 2987 2990 2995 2998 3004 3006 3011 3014 3019 3020 3015 3017 3018 3021 3022 3023 3026 3025
2847 2850 2854 2855 2859 2864 2870 2875 2880 2890 2893 2904 2910 2913 2921 2926 2933 2941 2944 2951 2955 2961 2964 2970 2976 2978 2982 2983 2984 2989 2995 3001 3003 3007 3011 3010 3010 3009 3013 3017 3014 3016 3017 3017
2851 2853 2856 2861 2865 2870 2876 2884 2888 2890 2897 2906 2911 2916 2922 2926 2934 2935 2941 2949 2952 2956 2962 2967 2970 2971 2977 2979 2980 2981 2986 2995 2998 3004 3008 3006 3003 3007 3006 3007 3007 3009 3009 3010
2855 2858 2861 2865 2870 2873 2878 2882 2887 2893 2901 2907 2914 2918 2923 2929 2937 2939 2939 2945 2947 2950 2957 2962 2964 2969 2972 2974 2978 2982 2985 2983 2988 2991 2990 2995 2997 2998 3000 3001 3001 3003 3005 3005
2862 2864 2867 2871 2874 2878 2882 2885 2890 2897 2904 2911 2915 2915 2922 2928 2931 2935 2938 2939 2945 2945 2952 2958 2962 2965 2968 2968 2974 2980 2977 2980 2983 2985 2984 2988 2993 2994 2994 2995 2996 2997 2999 3000
2868 2871 2873 2876 2879 2884 2888 2890 2894 2900 2902 2906 2914 2918 2924 2927 2930 2935 2936 2943 2944 2944 2948 2954 2957 2963 2965 2966 2973 2972 2972 2975 2974 2975 2978 2983 2987 2987 2987 2987 2988 2989 2990 2989
2874 2876 2879 2881 2884 2887 2891 2894 2898 2902 2908 2906 2913 2918 2922 2928 2931 2930 2934 2941 2941 2944 2948 2952 2956 2958 2964 2965 2966 2964 2966 2968 2968 2970 2973 2975 2977 2977 2978 2978 2979 2979 2979 2978
2879 2881 2883 2885 2887 2890 2892 2896 2900 2902 2904 2907 2913 2920 2924 2925 2927 2926 2932 2938 2943 2942 2945 2951 2953 2957 2962 2960 2955 2956 2959 2963 2961 2960 2963 2963 2962 2965 2966 2967 2970 2971 2971 2970
2881 2883 2886 2889 2891 2893 2895 2898 2899 2903 2906 2910 2914 2919 2919 2923 2926 2925 2931 2937 2937 2940 2946 2949 2951 2953 2953 2949 2944 2950 2952 2950 2949 2950 2950 2947 2951 2952 2956 2956 2957 2957 2956 2956
2883 2886 2888 2891 2893 2896 2897 2900 2904 2906 2908 2910 2913 2916 2920 2921 2922 2926 2929 2932 2935 2939 2941 2944 2946 2948 2947 2939 2942 2944 2941 2940 2938 2940 2940 2939 2942 2944 2945 2946 2946 2944 2943 2945
2886 2889 2892 2894 2896 2899 2902 2904 2905 2906 2908 2909 2911 2912 2915 2919 2922 2925 2928 2930 2932 2936 2937 2942 2944 2942 2938 2939 2938 2936 2935 2933 2932 2932 2933 2934 2935 2936 2937 2936 2935 2932 2931 2933
2890 2893 2895 2896 2899 2900 2901 2902 2903 2905 2908 2910 2909 2911 2915 2919 2923 2929 2933 2932 2932 2933 2936 2938 2938 2934 2934 2934 2932 2930 2930 2929 2928 2926 2927 2929 2930 2931 2931 2929 2927 2924 2923 2924
2892 2894 2896 2897 2898 2899 2900 2901 2902 2903 2905 2906 2910 2915 2919 2924 2928 2930 2931 2928 2928 2931 2936 2936 2933 2930 2929 2929 2929 2929 2927 2925 2923 2922 2922 2924 2925 2925 2925 2922 2921 2918 2918 2918
2894 2896 2897 2898 2899 2900 2901 2901 2903 2905 2908 2910 2913 2917 2919 2922 2924 2925 2927 2928 2930 2931 2932 2932 2929 2929 2929 2928 2927 2925 2924 2922 2921 2920 2920 2921 2922 2923 2922 2921 2919 2919 2919 2921
2895 2897 2899 2900 2901 2902 2902 2904 2905 2907 2909 2911 2913 2915 2918 2921 2924 2926 2926 2927 2929 2930 2930 2929 2928 2927 2927 2926 2925 2923 2921 2920 2919 2920 2921 2922 2923 2923 2923 2922 2923 2923 2923 2923
2897 2899 2901 2902 2902 2903 2905 2906 2908 2910 2912 2913 2915 2917 2919 2921 2922 2924 2925 2927 2928 2929 2928 2926 2926 2926 2925 2924 2923 2922 2921 2920 2919 2919 2919 2920 2920 2921 2921 2922 2922 2922 2923 2923
2899 2901 2902 2902 2903 2904 2906 2908 2910 2912 2913 2915 2916 2918 2920 2920 2921 2922 2924 2925 2925 2925 2923 2923 2924 2924 2923 2922 2922 2921 2920 2919 2918 2918 2917 2917 2917 2918 2918 2919 2920 2921 2922 2922
2901 2902 2902 2903 2905 2906 2907 2909 2910 2912 2914 2915 2917 2918 2919 2920 2920 2920 2921 2922 2921 2922 2922 2923 2923 2923 2922 2921 2920 2919 2918 2918 2917 2916 2915 2915 2914 2914 2916 2916 2917 2918 2918 2919
2901 2902 2903 2904 2906 2907 2908 2909 2910 2912 2914 2915 2916 2917 2917 2917 2918 2918 2918 2919 2920 2920 2921 2921 2921 2921 2920 2920 2919 2918 2917 2916 2915 2914 2913 2912 2912 2912 2913 2914 2914 2915 2916 2917